Location: Boiro
(42.6475°N, 8.8834°W)
Time: 19:25:59
(UTC+01:00)

Altair - Pass Details

Date: 30 November 2021
Orbit: 1501 x 1683 km, 47.2° (Epoch: 25 January)

Event Time Altitude Azimuth Distance (km) Brightness Sun altitude
Rises 17:54:25 0° 229° (SW) 4,770 12.5 0.6°
Reaches altitude 10° 17:57:33 10° 227° (SW) 3,762 11.5 0.1°
Maximum altitude 18:06:56 69° 147° (SSE) 1,625 7.7 -1.4°
Drops below altitude 10° 18:16:04 10° 67° (ENE) 3,665 8.8 -2.9°
Enters shadow 18:17:58 - 66° (ENE) 4,277 9.1 -3.2°
Sets 18:19:04 0° 65° (ENE) 4,641 - -3.4°
